Carbondale, IL

9:57 AM CST on November 15, 2019 (GMT -0600)
Southern Illinois

Weather History for KMDH - August, 2019

Change the Weather History Date:

Sunday, August 11, 2019

  Actual Average Record
Temperature  
Mean Temperature 76 °F -  
Max Temperature 88 °F 86 °F 106 °F (1918)
Min Temperature 64 °F 63 °F 48 °F (1931)
Cooling Degree Days 10    
Growing Degree Days 26 (Base 50)    
Moisture  
Dew Point 69 °F    
Average Humidity 81    
Maximum Humidity 100    
Minimum Humidity 63    
Precipitation  
Precipitation 0.00 in - - ()
Sea Level Pressure  
Sea Level Pressure 29.99 in    
Wind  
Wind Speed 2 mph (South)    
Max Wind Speed 7 mph    
Max Gust Speed -    
Visibility 8 miles    
Events      
Averages and records for this station are not official NWS values.
T = Trace of Precipitation, MM = Missing Value Source: NWS Daily Summary

Daily Weather History Graph

Daily Weather History Graph

Search for Another Location

Airport or City:

Astronomy

Aug. 11, 2019 Rise Set
Actual Time 6:08 AM CDT 7:54 PM CDT
Civil Twilight 5:40 AM CDT 8:23 PM CDT
Nautical Twilight 5:06 AM CDT 8:57 PM CDT
Astronomical Twilight 4:29 AM CDT 9:33 PM CDT
Moon 5:31 PM CDT (8/11) 2:31 AM CDT (8/11)
Length of Visible Light 14h 42m
Length of Day
13h 46m
Waxing Gibbous, 87% of the Moon is Illuminated
Aug 11
Waxing Gibbous
Aug 15
Full
Aug 23
Last Quarter
Aug 30
New
Sep 5
First Quarter

Hourly Weather History & Observations

Time (CDT) Temp. Heat Index Dew Point Humidity Pressure Visibility Wind Dir Wind Speed Gust Speed Precip Events Conditions
12:52 AM 66.9 °F - 66.0 °F 97% 30.00 in 10.0 mi Calm Calm - N/A   Clear
1:52 AM 66.0 °F - 64.9 °F 96% 29.99 in 9.0 mi Calm Calm - N/A   Clear
2:52 AM 66.0 °F - 64.0 °F 93% 29.98 in 10.0 mi Calm Calm - N/A   Clear
3:52 AM 64.9 °F - 64.0 °F 97% 29.97 in 6.0 mi Calm Calm - N/A   Clear
4:52 AM 64.9 °F - 64.0 °F 97% 29.98 in 6.0 mi Calm Calm - N/A   Clear
5:36 AM 64.9 °F - 63.0 °F 93% 30.00 in 2.0 mi Calm Calm - N/A   Clear
5:45 AM 64.0 °F - 64.0 °F 100% 30.00 in 4.0 mi Calm Calm - N/A   Clear
5:52 AM 64.0 °F - 64.0 °F 100% 29.99 in 4.0 mi Calm Calm - N/A   Clear
6:52 AM 66.0 °F - 64.0 °F 93% 30.01 in 7.0 mi Calm Calm - N/A   Clear
7:52 AM 72.0 °F - 68.0 °F 87% 30.03 in 10.0 mi Calm Calm - N/A   Clear
8:52 AM 77.0 °F - 66.9 °F 71% 30.03 in 10.0 mi South 3.5 mph - N/A   Clear
9:52 AM 81.0 °F 84.1 °F 69.1 °F 67% 30.04 in 10.0 mi ESE 4.6 mph - N/A   Clear
10:52 AM 82.9 °F 86.5 °F 69.1 °F 63% 30.04 in 10.0 mi South 5.8 mph - N/A   Clear
11:52 AM 84.9 °F 90.1 °F 71.1 °F 63% 30.04 in 10.0 mi SW 6.9 mph - N/A   Clear
12:52 PM 87.1 °F 94.5 °F 73.0 °F 63% 30.02 in 10.0 mi SW 6.9 mph - N/A   Clear
1:52 PM 87.1 °F 95.4 °F 73.9 °F 65% 30.01 in 10.0 mi West 6.9 mph - N/A   Clear
2:52 PM 86.0 °F 93.0 °F 73.0 °F 65% 30.00 in 10.0 mi SW 3.5 mph - N/A   Clear
3:52 PM 84.9 °F 92.1 °F 73.9 °F 69% 29.97 in 10.0 mi Variable 3.5 mph - N/A   Clear
4:52 PM 86.0 °F 93.0 °F 73.0 °F 65% 29.96 in 10.0 mi SSE 5.8 mph - N/A   Clear
5:52 PM 87.1 °F 95.4 °F 73.9 °F 65% 29.94 in 10.0 mi SSE 6.9 mph - N/A   Clear
6:52 PM 84.0 °F 90.2 °F 73.0 °F 69% 29.93 in 10.0 mi South 6.9 mph - N/A   Clear
7:52 PM 80.1 °F 84.5 °F 73.9 °F 81% 29.93 in 10.0 mi SSE 3.5 mph - N/A   Clear
8:52 PM 78.1 °F - 73.9 °F 87% 29.94 in 9.0 mi SSE 3.5 mph - N/A   Clear
9:52 PM 77.0 °F - 75.0 °F 94% 29.96 in 7.0 mi ESE 5.8 mph - N/A   Clear
10:52 PM 77.0 °F - 73.9 °F 90% 29.95 in 9.0 mi SE 3.5 mph - N/A   Partly Cloudy
11:52 PM 78.1 °F - 73.9 °F 87% 29.95 in 9.0 mi Calm Calm - N/A   Scattered Clouds